Hourly Data Report for August 20, 2003

TORONTO CITY
ONTARIO

43°40'00.000" N
79°24'00.000" W
112.50 m
6158355
71508
XTO

Download Data

Hourly Data (August 2003)
Hourly Data Report for August 20, 2003
TIME
LST
Temp Definition
°C
Dew Point Definition
°C
Rel Hum Definition
%
Precip. Amount Definition
mm

Wind Dir Definition
10's deg

Wind Spd Definition
km/h
Visibility Definition
km
Stn Press Definition
kPa
Hmdx Definition


Wind Chill Definition


Weather Definition


00:00 20.3 15.8 75   LegendMM LegendMM LegendMM 100.64 25   LegendNANA
01:00 19.8 14.9 73   LegendMM LegendMM LegendMM 100.66     LegendNANA
02:00 19.4 14.8 75   LegendMM LegendMM LegendMM 100.64     LegendNANA
03:00 18.7 14.8 78   LegendMM LegendMM LegendMM 100.62     LegendNANA
04:00 18.6 14.8 79   LegendMM LegendMM LegendMM 100.61     LegendNANA
05:00 17.9 14.7 82   LegendMM LegendMM LegendMM 100.63     LegendNANA
06:00 17.9 14.9 83   LegendMM LegendMM LegendMM 100.63     LegendNANA
07:00 20.0 15.9 77   LegendMM LegendMM LegendMM 100.67 25   LegendNANA
08:00 22.2 16.1 68   LegendMM LegendMM LegendMM 100.66 27   LegendNANA
09:00 24.6 13.3 49   LegendMM LegendMM LegendMM 100.67 28   LegendNANA
10:00 26.7 14.4 47   LegendMM LegendMM LegendMM 100.67 30   LegendNANA
11:00 27.4 15.1 47   LegendMM LegendMM LegendMM 100.63 31   LegendNANA
12:00 28.4 17.5 52   LegendMM LegendMM LegendMM 100.57 34   LegendNANA
13:00 29.3 17.6 49   LegendMM LegendMM LegendMM 100.54 35   LegendNANA
14:00 30.3 15.6 41   LegendMM LegendMM LegendMM 100.49 35   LegendNANA
15:00 29.9 16.4 44   LegendMM LegendMM LegendMM 100.42 35   LegendNANA
16:00 29.5 17.9 50   LegendMM LegendMM LegendMM 100.41 35   LegendNANA
17:00 27.7 18.6 58   LegendMM LegendMM LegendMM 100.40 34   LegendNANA
18:00 27.2 18.6 59   LegendMM LegendMM LegendMM 100.36 34   LegendNANA
19:00 25.9 19.1 66   LegendMM LegendMM LegendMM 100.35 33   LegendNANA
20:00 25.3 19.0 68   LegendMM LegendMM LegendMM 100.35 32   LegendNANA
21:00 24.4 19.3 73   LegendMM LegendMM LegendMM 100.33 31   LegendNANA
22:00 23.5 20.3 82   LegendMM LegendMM LegendMM 100.28 31   LegendNANA
23:00 23.0 19.6 81   LegendMM LegendMM LegendMM 100.30 30   LegendNANA

Notes on Data Quality.

Legend

  • E = Estimated
  • M = Missing
  • NA = Not Available*
  • [empty] = Indicates an unobserved value
Date modified: